Location: Stanford
(52.2833°N, 2.4333°W)
Time: 19:58:04
(UTC+00:00)

Cosmos 1833 Rocket - Pass Details

Date: 22 January 2021
Orbit: 833 x 839 km, 71.0° (Epoch: 27 February)

Event Time Altitude Azimuth Distance (km) Brightness Sun altitude
Rises 17:11:33 0° 327° (NNW) 3,393 5.9 -5.2°
Reaches altitude 10° 17:14:44 10° 345° (NNW) 2,456 5.0 -5.7°
Maximum altitude 17:18:44 19° 30° (NNE) 1,880 4.1 -6.2°
Drops below altitude 10° 17:22:42 10° 76° (ENE) 2,452 4.5 -6.8°
Enters shadow 17:23:36 - 82° (E) 2,693 4.7 -6.9°
